Regional Weather Roundup
Issued by NWS

Home | Current Version | Previous Version | Graphics & Text | Print | Product List | Glossary On
Versions: 1 2 3 4 5 6 7 8 9 10 11 12 13 14 15 16 17 18 19 20 21 22 23 24 25 26 27 28 29 30 31 32 33 34 35 36 37 38 39 40 41 42 43 44 45 46 47 48 49 50
000
ASUS43 KMPX 300201
RWRMN
WEATHER ROUNDUP FOR MINNESOTA
NATIONAL WEATHER SERVICE TWIN CITIES/CHANHASSEN MN
900 PM CDT WED OCT 29 2014


NOTE: "FAIR" INDICATES FEW OR NO CLOUDS BELOW 12,000 FEET WITH NO
SIGNIFICANT WEATHER AND/OR OBSTRUCTIONS TO VISIBILITY. N/A MEANS
CURRENT SKY AND/OR WEATHER CONDITIONS ARE NOT AVAILABLE.

MNZ060>063-068>070-300300-
   Twin Cities Metro

CITY           SKY/WX    TMP DP  RH WIND       PRES   REMARKS
TWIN CITIES    CLOUDY    40  31  70 CALM      30.10S
ST PAUL        CLOUDY    38  33  82 CALM      30.11F
CRYSTAL        MOCLDY    36  31  82 CALM      30.08F
BLAINE         PTCLDY    36  34  93 CALM      30.09F
LAKEVILLE      MOCLDY    30  28  93 CALM      30.09F
EDEN PRAIRIE   MOCLDY    38  33  82 CALM      30.08F
SOUTH ST PAUL  CLOUDY    37  32  82 CALM      30.10S
LAKE ELMO      FAIR      32  32 100 CALM      30.10F
$$
MNZ001>005-007-008-013>017-022>024-027-028-300300-
   Northwest Minnesota

CITY           SKY/WX    TMP DP  RH WIND       PRES   REMARKS
BEMIDJI        CLOUDY    34  30  84 CALM      30.04S
HALLOCK        MOCLDY    37  30  75 SE8       30.01F
ROSEAU         CLOUDY    36  30  80 CALM      30.04S
WARROAD        CLOUDY    36  32  87 CALM      30.05R
THIEF RVR FALL CLOUDY    36  30  80 SE6       30.03F
CROOKSTON      CLOUDY    37  30  75 SE8       30.03S
FOSSTON        CLOUDY    32  30  93 CALM      30.04S
DETROIT LAKES  MOCLDY    36  32  87 SE6       30.02F
MOORHEAD       CLOUDY    39  34  81 SE9       30.02S
PARK RAPIDS    CLOUDY    34  29  82 SE3       30.03F
MAHNOMEN       MOCLDY    34  30  85 SE5       30.02F WCI  30
$$
MNZ006-009>011-018-025>026-300300-
   North Central Minnesota

CITY           SKY/WX    TMP DP  RH WIND       PRES   REMARKS
BAUDETTE       CLOUDY    36  32  85 SW7       30.04S
FLAG ISLAND    CLOUDY    37  34  87 W5        30.03S
INTL FALLS     CLOUDY    35  33  92 SW3       30.04R
WASKISH        CLOUDY    36  32  87 CALM      30.05R
BIG FORK       CLOUDY    36  34  93 CALM      30.05S
LONGVILLE      CLOUDY    36  30  80 S3        30.04F
GRAND RAPIDS   CLOUDY    36  30  80 S6        30.05S
CRANE LAKE     CLOUDY    36  34  93 CALM      30.06S FOG
ORR            CLOUDY    36  34  93 CALM      30.02S FOG
COOK           CLOUDY    36  34  93 W3        30.05R
WALKER         CLOUDY    35  30  82 SW6       30.04S WCI  30
$$
MNZ012-019>021-037-300300-
   Northeast Minnesota

CITY           SKY/WX    TMP DP  RH WIND       PRES   REMARKS
DULUTH         CLOUDY    37  31  78 W7        30.05S
ELY            CLOUDY    36  36 100 W3        30.03S
HIBBING        CLOUDY    36  31  82 W3        30.05S
EVELETH        CLOUDY    36  34  93 W8        30.05F
DULUTH HARBOR  CLOUDY    43  34  70 SW5       30.08F
TWO HARBORS    CLOUDY    43 N/A N/A SW5       30.04S
SILVER BAY     MOCLDY    41  36  81 CALM      30.03S
GRAND MARAIS     N/A     41  35  79 CALM      30.04F
G MARAIS ARPRT CLOUDY    36  30  80 NW1       30.02S
$$
MNZ029>031-032-039>041-046>048-054>057-064-300300-
   West Central Minnesota

CITY           SKY/WX    TMP DP  RH WIND       PRES   REMARKS
FERGUS FALLS   CLOUDY    37  30  75 SE10      30.04F
WHEATON        CLOUDY    37  30  75 SE12      30.03F
MORRIS         CLOUDY    36  32  87 SE7       30.03F
ALEXANDRIA     CLOUDY    35  31  85 SE6       30.04F WCI  30
ELBOW LAKE     CLOUDY    36  32  85 SE3       30.03F
WADENA         MOCLDY    34  30  86 CALM      30.04F
GLENWOOD       MOCLDY    34  30  86 SE5       30.05F WCI  30
APPLETON       CLOUDY    39  34  81 SE6       30.04S
BENSON         CLOUDY    37  32  81 SE5       30.05F
ORTONVILLE     CLOUDY    39  32  75 SE6       30.03F
MADISON        CLOUDY    43  36  75 SE6       30.04S
WILLMAR        FAIR      37  32  81 E3        30.07S
$$
MNZ033>034-036-042>043-049>051-058-059-300300-
   Central Minnesota

CITY           SKY/WX    TMP DP  RH WIND       PRES   REMARKS
ST CLOUD       MOCLDY    37  31  78 CALM      30.08S
SAUK CENTRE    FAIR      33  31  93 CALM      30.06F
PAYNESVILLE    MOCLDY    30  29  96 CALM      30.07S
AITKIN         CLOUDY    39  32  75 CALM      30.04F
PINE RIVER     CLOUDY    36  30  80 CALM      30.08F
BRAINERD       CLOUDY    36  31  82 S3        30.06F
STAPLES        CLOUDY    36  30  80 CALM      30.05F
LONG PRAIRIE   FAIR      32  32 100 CALM      30.05F
LITTLE FALLS   MOCLDY    34  32  93 CALM      30.06F
LITCHFIELD     MOCLDY    36  34  93 CALM      30.07F
BUFFALO        MOCLDY    34  30  85 CALM      30.09F
MAPLE LAKE     MOCLDY    37  34  90 CALM      30.08F
$$
MNZ037-044-045-052-053-300300-
   East Central Minnesota

CITY           SKY/WX    TMP DP  RH WIND       PRES   REMARKS
PRINCETON      CLOUDY    39  34  81 CALM      30.08F
MORA           CLOUDY    36  32  87 CALM      30.09F
CAMBRIDGE      CLOUDY    41  30  65 S3        30.07F
RUSH CITY      CLOUDY    38  32  77 CALM      30.09F
MOOSE LAKE     CLOUDY    36  32  87 W7        30.06S
HINCKLEY       CLOUDY    37  32  81 CALM      30.09S
CLOQUET        CLOUDY    37  30  75 W3        30.06S
MCGREGOR       CLOUDY    36  32  87 CALM      30.07S
$$
MNZ071>073-080-081-089-090-097-098-300300-
   Southwest Minnesota

CITY           SKY/WX    TMP DP  RH WIND       PRES   REMARKS
MONTEVIDEO     CLOUDY    37  34  87 SE6       30.05F
GRANITE FALLS  CLOUDY    39  31  71 E6        30.06S
CANBY          MOCLDY    42  33  69 CALM      30.04F
MARSHALL       CLOUDY    43  28  56 S5        30.04S
REDWOOD FALLS  CLOUDY    41  29  62 SE6       30.05F
OLIVIA         MOCLDY    39  32  75 E7        30.05F
PIPESTONE      CLOUDY    39  30  70 S6        30.03F
WINDOM         MOCLDY    43  30  61 CALM      30.06F
WORTHINGTON    MOCLDY    43  28  56 S7        30.06F
JACKSON        MOCLDY    39  30  70 S6        30.07F
TRACY          CLOUDY    45  32  61 SW6       30.04F
SLAYTON        MOCLDY    39  29  69 CALM      30.06F
$$
MNZ065>067-074>077-082>085-091>093-300300-
   South Central Minnesota

CITY           SKY/WX    TMP DP  RH WIND       PRES   REMARKS
MANKATO        MOCLDY    37  28  70 SE6       30.08F
NEW ULM        MOCLDY    39  30  70 SE5       30.06F
ST JAMES       MOCLDY    39  30  70 SE3       30.08S
FAIRMONT       MOCLDY    37  27  65 S5        30.08S
GLENCOE        MOCLDY    35  31  86 E3        30.07F
FARIBAULT      MOCLDY    30  28  93 CALM      30.09F
OWATONNA       MOCLDY    34  30  86 CALM      30.09F
WASECA         MOCLDY    34  28  80 E6        30.10F WCI  29
ALBERT LEA     PTCLDY    34  30  86 CALM      30.09S
$$
MNZ078>079-086>088-094>096-300300-
   Southeast Minnesota

CITY           SKY/WX    TMP DP  RH WIND       PRES   REMARKS
ROCHESTER      PTCLDY    36  30  79 CALM      30.10F
RED WING         N/A     34  30  86 CALM      30.10S
STANTON        MOCLDY    31  28  88 CALM      30.08F
DODGE CENTER   MOCLDY    34  30  86 CALM      30.09F
WINONA         CLEAR     36  32  87 CALM      30.12S
AUSTIN         PTCLDY    34  28  80 CALM      30.09S
PRESTON        CLEAR     37  30  78 SW3       30.10S
$$
ABBREVIATIONS USED IN REMARKS
   TC - TEMPERATURES IN CELSIUS
  WCI - WIND CHILL INDEX
   HX - HEAT INDEX
  VSB - VISIBILITY
$$



USA.gov is the U.S. government's official web portal to all federal, state and local government web resources and services.